SCP
0 0 -0 -0 -0 -0 -0 -0 0 -0 0 -0 -0 -0 -0 -0 -0 -0 -0 -0 -0 0 0 -0 -0 -0 -0 -0 -0 0 0 0 0 0 0 0 0 0 0 0 0 0 0
-0 0 -0 -0 -0 -0 -0 -0 -0 -0 -0 -0 -0 -0 -0 -0 -0 0 0 0 0 0 0 0 0 0 0 -0 -0 -0 -0 -0 -0 -0 0 0 0 0 0 0 0 0 0
-0 0 0 -0 -0 -0 -0 -0 -0 -0 -0 -0 -0 -0 0 0 0 0 0 0 0 0 0 0 0 0 0 0 0 0 -0 -0 -0 -0 -0 -0 0 0 0 0 0 0 0
-0 0 0 -0 -0 -0 -0 -0 -0 -0 -0 0 0 0 0 0 0 0 0 0 0 0 0 0 0 0 0 0 0 0 -0 -0 -0 -0 -0 -0 0 0 0 0 0 0 0
-0 -0 -0 -0 -0 -0 -0 -0 -0 -0 -0 -0 0 0 0 0 0 0 0 0 0 0 0 0 0 0 0 0 0 0 0 -0 -0 -0 -0 -0 0 0 0 0 0 0 0
0 -0 -0 -0 -0 -0 -0 -0 -0 -0 -0 -0 0 0 0 0 0 0 0 0 0 0 0 0 0 0 0 0 0 0 0 0 -0 0 0 0 0 0 0 0 0 0 0
0 0 0 0 -0 -0 -0 -0 -0 -0 0 0 0 1 1 1 0 0 0 0 0 0 0 0 0 0 0 0 0 0 0 -0 0 0 0 0 0 0 0 0 0 0 0
0 0 0 0 0 0 -0 -0 -0 -0 -0 0 0 1 1 1 0 0 0 0 0 0 0 0 0 0 0 0 0 0 0 0 -0 -0 0 0 0 0 0 0 0 0 0
0 0 0 0 0 0 0 -0 0 0 0 0 0 0 1 0 0 0 0 0 0 0 0 0 0 0 0 0 0 0 0 0 0 0 0 0 0 0 0 0 0 0 0
1 1 0 0 0 0 0 0 0 0 0 0 0 0 0 0 0 0 0 0 0 0 0 0 0 0 0 0 0 0 0 0 0 0 0 0 1 0 0 0 0 0 1
2 1 0 0 0 0 0 0 0 0 0 0 0 1 0 0 0 0 0 0 0 0 0 0 0 0 0 1 0 0 0 0 0 0 0 1 1 1 0 0 0 0 1
2 1 1 0 0 0 0 0 0 0 0 0 0 0 0 0 0 0 0 0 0 0 0 1 1 1 1 1 0 0 0 0 0 0 0 1 1 0 0 0 0 0 1
1 2 1 1 0 0 0 0 0 0 0 0 0 0 0 0 0 0 0 0 0 0 0 1 1 1 1 1 0 0 0 0 0 0 0 0 1 1 0 0 0 0 1
0 2 5 2 1 0 0 0 0 0 0 0 0 0 0 0 0 0 0 0 0 0 0 0 0 1 1 0 0 0 0 0 0 0 1 1 1 0 0 0 0 0 0
0 0 1 2 1 0 0 0 0 0 0 0 0 0 0 0 0 0 0 0 0 0 0 0 0 0 0 0 0 0 0 1 0 0 1 1 0 0 0 0 0 0 0
0 1 0 0 0 1 1 1 1 1 1 0 0 0 0 0 0 0 0 0 0 0 0 0 0 0 0 0 0 0 0 0 0 0 0 1 1 1 1 1 0 0 0
0 0 0 0 0 4 1 2 2 2 1 1 1 1 0 0 0 0 0 0 0 0 0 0 0 0 0 0 0 0 0 0 1 1 1 1 1 1 1 1 0 0 0
0 0 0 0 1 2 1 1 2 5 5 3 3 2 2 1 0 1 0 0 0 0 0 0 0 0 0 1 0 1 1 1 1 1 1 1 0 1 1 1 0 0 0
0 0 0 1 3 3 3 3 3 3 3 3 2 2 4 2 1 1 1 1 0 0 0 0 0 0 0 0 1 1 1 1 1 1 1 0 0 0 0 0 0 0 0
0 0 0 1 2 4 7 6 5 4 3 2 2 2 3 4 3 2 2 1 1 0 1 0 0 0 0 1 1 1 1 1 1 1 0 0 0 0 0 0 0 0 0
0 0 1 1 1 6 5 6 4 2 1 1 1 1 2 7 6 6 3 2 2 1 1 1 0 0 1 1 1 1 1 1 1 0 0 0 0 0 0 0 0 0 0
0 1 1 1 1 2 2 1 0 0 0 0 0 1 3 6 7 4 3 3 2 1 1 1 1 1 1 0 0 1 1 0 0 0 0 0 0 0 0 0 0 0 0
1 1 1 1 1 1 1 1 1 0 0 1 2 2 4 6 6 5 3 2 2 1 1 1 1 0 0 0 1 1 1 0 0 0 0 0 0 0 0 0 0 0 0
0 0 0 0 0 0 0 1 1 0 1 0 0 4 6 7 6 4 3 2 1 1 1 1 1 0 1 1 1 1 0 0 0 0 0 0 0 0 0 0 0 0 0
0 0 0 1 0 0 0 0 0 0 1 1 2 6 7 5 4 3 2 1 2 1 1 1 1 0 0 1 1 1 0 0 0 0 0 0 0 0 0 0 0 0 0
0 0 0 0 0 0 0 1 1 1 2 3 5 7 5 3 3 3 2 1 1 1 1 1 0 0 1 0 0 0 0 0 0 0 0 0 0 0 0 0 0 0 0
Wind_Speed_500mb
60 57 53 46 42 44 47 47 47 47 47 44 40 36 35 31 27 24 24 22 20 16 14 12 11 9 6 4 1 2 4 6 7 6 6 4 2 3 3 3 8 6 5
64 61 56 50 46 46 47 46 46 47 45 41 39 36 33 29 26 22 19 18 15 14 13 12 12 11 10 9 8 7 6 5 4 3 2 1 6 5 4 4 5 2 6
63 65 59 52 48 47 48 47 45 44 42 40 36 33 29 26 22 18 17 15 13 11 10 10 10 10 11 11 10 12 12 13 12 14 15 12 7 7 8 9 8 7 7
66 66 62 54 48 46 44 46 45 42 40 36 33 30 26 23 20 17 14 12 11 9 9 7 7 7 8 9 9 12 12 13 16 24 18 8 4 1 8 11 13 9 6
65 65 61 57 50 44 41 40 42 40 37 34 31 29 27 23 19 17 14 13 11 9 7 6 3 3 4 4 6 8 9 11 17 19 13 3 8 16 19 16 16 17 10
66 63 60 56 50 44 40 38 37 37 36 33 31 30 28 25 22 19 17 14 12 10 8 6 2 3 3 4 6 6 6 8 18 17 12 8 21 17 18 15 18 22 15
67 64 62 55 50 44 40 38 36 34 34 33 32 31 29 27 25 22 21 19 17 15 13 11 9 9 8 6 7 7 5 1 14 11 11 6 20 23 19 17 18 22 24
70 65 59 54 48 44 42 38 36 34 34 33 34 34 33 30 29 28 27 26 25 22 20 17 14 16 14 12 10 8 10 8 6 9 14 7 24 27 22 19 18 17 25
65 66 61 56 51 47 44 40 38 36 35 35 35 35 35 35 35 35 34 34 32 29 27 24 24 23 21 18 15 12 11 13 12 6 20 16 9 25 21 20 22 19 21
59 62 61 58 54 52 48 43 40 37 37 37 38 39 39 41 41 42 42 42 40 37 35 32 32 32 28 25 21 14 11 11 13 5 15 18 14 21 24 26 28 25 22
51 52 55 56 54 51 49 46 43 41 41 41 42 44 46 49 49 49 50 49 47 45 43 41 39 38 36 33 25 19 12 11 15 11 11 12 15 23 28 33 34 30 25
68 57 58 54 51 49 49 48 43 43 44 44 44 47 50 53 55 55 56 54 53 53 51 49 46 46 45 41 30 27 16 7 10 10 11 14 23 31 32 32 34 29 25
71 64 61 61 51 46 46 46 45 45 45 45 49 51 54 56 60 61 62 62 62 60 60 58 56 55 54 47 37 31 21 11 14 9 15 22 30 31 32 31 32 26 26
71 75 70 56 49 39 37 34 36 38 36 39 42 44 48 53 59 62 64 64 65 64 62 63 61 61 59 53 42 35 29 23 22 17 19 18 31 26 27 29 31 25 26
45 46 70 51 37 29 40 42 38 38 40 39 37 37 39 43 48 47 50 55 58 59 56 54 52 60 64 55 46 39 37 24 22 30 39 38 24 29 31 31 30 26 23
42 48 34 58 37 46 62 43 39 40 41 44 40 40 39 45 50 47 46 45 50 52 54 46 43 45 53 52 38 31 40 32 41 48 44 37 37 34 34 33 30 24 23
25 47 71 62 65 79 66 46 41 41 48 48 47 47 46 49 58 54 56 50 46 49 52 48 45 39 41 40 41 33 35 32 39 42 43 42 37 42 39 32 29 25 24
57 54 57 37 42 57 67 48 45 52 55 57 59 56 53 56 61 62 66 61 49 47 56 56 48 43 44 47 44 37 35 38 44 48 48 49 46 49 46 39 32 29 25
40 61 60 50 51 46 42 50 47 42 52 58 59 62 62 65 64 67 71 66 53 47 58 59 50 51 48 49 54 43 48 47 48 53 55 52 49 43 45 36 36 23 28
66 54 48 52 52 54 58 55 49 48 54 54 59 60 57 58 61 66 68 64 54 52 56 62 65 54 47 46 47 48 52 55 51 52 49 43 45 40 40 35 32 31 29
72 74 68 68 67 66 58 59 66 67 63 62 65 66 64 65 66 66 66 59 53 55 56 54 54 64 58 49 47 42 43 50 51 46 37 34 39 32 35 35 35 39 31
67 96 92 83 77 70 65 56 56 62 71 72 74 67 57 56 60 64 64 59 53 54 60 51 59 59 57 60 54 47 39 49 50 43 41 37 39 47 43 48 46 45 35
86 70 80 78 77 74 65 57 59 63 70 71 65 51 59 61 58 59 60 54 48 52 52 58 56 57 57 56 53 46 19 19 18 26 31 41 42 38 34 33 45 46 35
59 61 64 63 63 66 62 62 62 61 70 70 64 59 59 62 59 58 55 49 43 46 44 53 53 59 55 56 49 48 51 16 10 11 21 26 28 30 26 32 41 45 43
57 55 59 60 61 62 64 68 69 69 67 68 52 59 57 61 61 55 51 44 42 43 44 44 46 48 59 50 47 50 39 31 27 27 24 25 26 23 24 25 32 29 30
66 64 57 61 66 69 71 70 71 74 63 59 49 55 62 61 57 51 47 41 45 41 41 44 44 34 40 45 43 35 29 29 33 29 25 22 28 27 19 18 24 26 40
Wind_Direction_500mb
156 154 150 150 149 149 146 139 137 138 139 140 139 138 135 134 131 124 117 113 108 101 95 93 93 95 101 110 117 283 282 280 275 258 238 228 145 58 18 98 147 127 106
150 153 152 152 153 152 150 145 146 146 146 145 144 144 143 142 139 135 129 121 116 113 106 96 87 83 80 79 79 72 55 55 43 358 343 147 102 61 350 281 210 272 207
156 152 152 153 155 153 154 153 155 153 151 151 153 151 153 152 150 149 143 139 136 127 116 108 106 95 83 72 66 64 59 60 72 86 84 68 112 54 12 297 267 232 226
159 152 151 154 157 157 157 162 163 163 161 162 162 160 161 163 161 161 159 158 156 152 140 131 118 106 94 78 61 59 64 71 92 110 96 79 234 224 322 311 258 253 241
161 153 153 155 158 161 162 167 171 173 174 174 175 176 178 178 179 180 184 182 180 175 165 157 126 69 65 69 64 70 76 91 116 117 108 123 332 299 288 283 256 244 222
163 157 157 158 161 165 169 172 176 180 185 189 193 195 196 195 197 202 206 209 205 202 202 204 224 270 305 348 5 26 70 122 143 140 137 191 274 310 312 297 286 240 230
164 163 160 164 167 170 176 181 183 185 191 199 207 211 215 214 213 216 223 226 226 224 225 226 239 258 274 297 314 335 342 147 186 209 139 233 256 302 312 319 313 253 228
169 168 168 172 178 181 184 186 189 193 199 205 212 219 223 227 228 229 232 235 237 235 234 235 244 252 259 274 282 295 306 302 252 217 181 172 260 283 302 305 319 285 239
180 177 176 182 186 189 191 192 197 201 207 214 219 226 231 234 235 236 238 239 240 239 240 238 241 246 250 257 265 276 295 306 304 250 215 219 289 264 289 294 303 301 260
181 183 183 185 189 193 196 199 206 209 214 221 227 232 237 240 242 241 241 241 243 242 241 241 242 246 246 251 257 261 274 302 297 276 213 242 262 279 288 298 302 294 273
188 189 190 192 196 199 205 207 213 217 223 227 232 236 239 242 244 245 246 244 244 245 244 244 244 247 248 249 250 251 259 309 290 208 184 250 275 278 288 300 301 292 264
189 191 200 200 203 204 211 211 219 226 233 237 242 245 246 248 249 250 251 250 249 248 247 245 245 248 248 250 247 247 250 302 211 220 252 269 273 283 291 303 308 284 250
197 201 197 205 206 207 214 215 221 230 237 241 246 250 254 255 254 254 253 252 249 247 247 246 244 247 249 251 251 251 238 214 204 259 268 278 268 277 289 302 315 288 242
201 197 195 198 204 207 218 219 218 225 233 240 246 247 251 256 258 257 259 258 254 251 250 251 250 253 254 254 254 256 230 216 221 241 258 271 255 271 286 300 317 293 248
151 151 189 186 178 249 258 247 237 239 243 245 241 244 251 261 264 263 257 258 262 260 255 252 257 256 255 255 257 247 234 220 231 245 265 260 263 279 289 297 302 302 262
203 169 195 183 193 225 242 241 246 247 246 238 240 251 263 273 276 275 270 261 263 263 261 255 254 265 261 252 246 237 233 232 241 257 258 260 267 272 275 285 297 294 265
205 216 203 235 229 231 227 229 237 243 238 241 247 257 263 271 276 280 277 267 262 264 257 257 254 258 251 247 240 239 227 244 249 253 251 257 257 261 267 274 282 284 269
217 200 197 193 194 207 215 229 233 237 236 243 249 254 258 264 271 274 274 266 262 255 247 248 250 247 248 245 243 241 237 252 255 254 253 256 256 262 264 270 278 276 277
237 214 217 209 202 201 223 238 247 243 242 245 247 246 250 252 255 261 266 263 258 255 240 241 247 250 252 239 237 238 242 246 252 256 256 261 263 264 262 258 265 269 271
253 237 228 216 213 219 231 238 244 247 248 248 253 258 258 255 256 259 259 255 252 254 239 234 239 245 249 230 236 242 250 255 258 262 271 266 265 252 261 252 250 258 254
253 246 240 240 243 241 229 229 245 247 255 253 255 262 266 265 254 255 257 249 250 251 241 238 239 235 242 238 241 244 251 255 257 266 264 265 249 263 263 257 257 254 247
256 247 239 232 234 239 243 241 235 251 256 259 263 266 260 258 251 248 252 252 251 247 234 234 232 237 240 239 241 248 250 254 259 264 254 253 257 262 259 260 251 241 234
252 251 229 219 221 231 244 244 243 252 254 254 255 249 246 245 249 253 253 249 249 244 231 231 231 234 239 234 240 239 237 234 238 250 246 252 262 268 269 245 237 236 230
245 227 220 225 232 240 246 249 250 255 257 254 250 248 239 238 244 249 251 248 249 230 232 232 232 234 239 237 240 229 238 233 253 257 252 252 263 277 264 245 229 232 226
243 229 225 225 227 236 245 255 261 262 262 260 255 242 231 234 239 243 246 249 236 214 226 228 229 237 243 237 230 235 235 239 254 252 252 257 273 283 253 247 234 226 222
246 237 236 241 246 250 255 257 259 261 251 248 241 232 226 230 233 237 239 226 208 219 218 233 228 243 227 222 228 229 231 235 242 243 251 272 274 272 244 242 231 238 230
Wind_Speed_850mb
60 57 53 46 42 44 47 47 47 47 47 44 40 36 35 31 27 24 24 22 20 16 14 12 11 9 6 4 1 2 4 6 7 6 6 4 2 3 3 3 8 6 5
64 61 56 50 46 46 47 46 46 47 45 41 39 36 33 29 26 22 19 18 15 14 13 12 12 11 10 9 8 7 6 5 4 3 2 1 6 5 4 4 5 2 6
63 65 59 52 48 47 48 47 45 44 42 40 36 33 29 26 22 18 17 15 13 11 10 10 10 10 11 11 10 12 12 13 12 14 15 12 7 7 8 9 8 7 7
66 66 62 54 48 46 44 46 45 42 40 36 33 30 26 23 20 17 14 12 11 9 9 7 7 7 8 9 9 12 12 13 16 24 18 8 4 1 8 11 13 9 6
65 65 61 57 50 44 41 40 42 40 37 34 31 29 27 23 19 17 14 13 11 9 7 6 3 3 4 4 6 8 9 11 17 19 13 3 8 16 19 16 16 17 10
66 63 60 56 50 44 40 38 37 37 36 33 31 30 28 25 22 19 17 14 12 10 8 6 2 3 3 4 6 6 6 8 18 17 12 8 21 17 18 15 18 22 15
67 64 62 55 50 44 40 38 36 34 34 33 32 31 29 27 25 22 21 19 17 15 13 11 9 9 8 6 7 7 5 1 14 11 11 6 20 23 19 17 18 22 24
70 65 59 54 48 44 42 38 36 34 34 33 34 34 33 30 29 28 27 26 25 22 20 17 14 16 14 12 10 8 10 8 6 9 14 7 24 27 22 19 18 17 25
65 66 61 56 51 47 44 40 38 36 35 35 35 35 35 35 35 35 34 34 32 29 27 24 24 23 21 18 15 12 11 13 12 6 20 16 9 25 21 20 22 19 21
59 62 61 58 54 52 48 43 40 37 37 37 38 39 39 41 41 42 42 42 40 37 35 32 32 32 28 25 21 14 11 11 13 5 15 18 14 21 24 26 28 25 22
51 52 55 56 54 51 49 46 43 41 41 41 42 44 46 49 49 49 50 49 47 45 43 41 39 38 36 33 25 19 12 11 15 11 11 12 15 23 28 33 34 30 25
68 57 58 54 51 49 49 48 43 43 44 44 44 47 50 53 55 55 56 54 53 53 51 49 46 46 45 41 30 27 16 7 10 10 11 14 23 31 32 32 34 29 25
71 64 61 61 51 46 46 46 45 45 45 45 49 51 54 56 60 61 62 62 62 60 60 58 56 55 54 47 37 31 21 11 14 9 15 22 30 31 32 31 32 26 26
71 75 70 56 49 39 37 34 36 38 36 39 42 44 48 53 59 62 64 64 65 64 62 63 61 61 59 53 42 35 29 23 22 17 19 18 31 26 27 29 31 25 26
45 46 70 51 37 29 40 42 38 38 40 39 37 37 39 43 48 47 50 55 58 59 56 54 52 60 64 55 46 39 37 24 22 30 39 38 24 29 31 31 30 26 23
42 48 34 58 37 46 62 43 39 40 41 44 40 40 39 45 50 47 46 45 50 52 54 46 43 45 53 52 38 31 40 32 41 48 44 37 37 34 34 33 30 24 23
25 47 71 62 65 79 66 46 41 41 48 48 47 47 46 49 58 54 56 50 46 49 52 48 45 39 41 40 41 33 35 32 39 42 43 42 37 42 39 32 29 25 24
57 54 57 37 42 57 67 48 45 52 55 57 59 56 53 56 61 62 66 61 49 47 56 56 48 43 44 47 44 37 35 38 44 48 48 49 46 49 46 39 32 29 25
40 61 60 50 51 46 42 50 47 42 52 58 59 62 62 65 64 67 71 66 53 47 58 59 50 51 48 49 54 43 48 47 48 53 55 52 49 43 45 36 36 23 28
66 54 48 52 52 54 58 55 49 48 54 54 59 60 57 58 61 66 68 64 54 52 56 62 65 54 47 46 47 48 52 55 51 52 49 43 45 40 40 35 32 31 29
72 74 68 68 67 66 58 59 66 67 63 62 65 66 64 65 66 66 66 59 53 55 56 54 54 64 58 49 47 42 43 50 51 46 37 34 39 32 35 35 35 39 31
67 96 92 83 77 70 65 56 56 62 71 72 74 67 57 56 60 64 64 59 53 54 60 51 59 59 57 60 54 47 39 49 50 43 41 37 39 47 43 48 46 45 35
86 70 80 78 77 74 65 57 59 63 70 71 65 51 59 61 58 59 60 54 48 52 52 58 56 57 57 56 53 46 19 19 18 26 31 41 42 38 34 33 45 46 35
59 61 64 63 63 66 62 62 62 61 70 70 64 59 59 62 59 58 55 49 43 46 44 53 53 59 55 56 49 48 51 16 10 11 21 26 28 30 26 32 41 45 43
57 55 59 60 61 62 64 68 69 69 67 68 52 59 57 61 61 55 51 44 42 43 44 44 46 48 59 50 47 50 39 31 27 27 24 25 26 23 24 25 32 29 30
66 64 57 61 66 69 71 70 71 74 63 59 49 55 62 61 57 51 47 41 45 41 41 44 44 34 40 45 43 35 29 29 33 29 25 22 28 27 19 18 24 26 40
Wind_Direction_850mb
156 154 150 150 149 149 146 139 137 138 139 140 139 138 135 134 131 124 117 113 108 101 95 93 93 95 101 110 117 283 282 280 275 258 238 228 145 58 18 98 147 127 106
150 153 152 152 153 152 150 145 146 146 146 145 144 144 143 142 139 135 129 121 116 113 106 96 87 83 80 79 79 72 55 55 43 358 343 147 102 61 350 281 210 272 207
156 152 152 153 155 153 154 153 155 153 151 151 153 151 153 152 150 149 143 139 136 127 116 108 106 95 83 72 66 64 59 60 72 86 84 68 112 54 12 297 267 232 226
159 152 151 154 157 157 157 162 163 163 161 162 162 160 161 163 161 161 159 158 156 152 140 131 118 106 94 78 61 59 64 71 92 110 96 79 234 224 322 311 258 253 241
161 153 153 155 158 161 162 167 171 173 174 174 175 176 178 178 179 180 184 182 180 175 165 157 126 69 65 69 64 70 76 91 116 117 108 123 332 299 288 283 256 244 222
163 157 157 158 161 165 169 172 176 180 185 189 193 195 196 195 197 202 206 209 205 202 202 204 224 270 305 348 5 26 70 122 143 140 137 191 274 310 312 297 286 240 230
164 163 160 164 167 170 176 181 183 185 191 199 207 211 215 214 213 216 223 226 226 224 225 226 239 258 274 297 314 335 342 147 186 209 139 233 256 302 312 319 313 253 228
169 168 168 172 178 181 184 186 189 193 199 205 212 219 223 227 228 229 232 235 237 235 234 235 244 252 259 274 282 295 306 302 252 217 181 172 260 283 302 305 319 285 239
180 177 176 182 186 189 191 192 197 201 207 214 219 226 231 234 235 236 238 239 240 239 240 238 241 246 250 257 265 276 295 306 304 250 215 219 289 264 289 294 303 301 260
181 183 183 185 189 193 196 199 206 209 214 221 227 232 237 240 242 241 241 241 243 242 241 241 242 246 246 251 257 261 274 302 297 276 213 242 262 279 288 298 302 294 273
188 189 190 192 196 199 205 207 213 217 223 227 232 236 239 242 244 245 246 244 244 245 244 244 244 247 248 249 250 251 259 309 290 208 184 250 275 278 288 300 301 292 264
189 191 200 200 203 204 211 211 219 226 233 237 242 245 246 248 249 250 251 250 249 248 247 245 245 248 248 250 247 247 250 302 211 220 252 269 273 283 291 303 308 284 250
197 201 197 205 206 207 214 215 221 230 237 241 246 250 254 255 254 254 253 252 249 247 247 246 244 247 249 251 251 251 238 214 204 259 268 278 268 277 289 302 315 288 242
201 197 195 198 204 207 218 219 218 225 233 240 246 247 251 256 258 257 259 258 254 251 250 251 250 253 254 254 254 256 230 216 221 241 258 271 255 271 286 300 317 293 248
151 151 189 186 178 249 258 247 237 239 243 245 241 244 251 261 264 263 257 258 262 260 255 252 257 256 255 255 257 247 234 220 231 245 265 260 263 279 289 297 302 302 262
203 169 195 183 193 225 242 241 246 247 246 238 240 251 263 273 276 275 270 261 263 263 261 255 254 265 261 252 246 237 233 232 241 257 258 260 267 272 275 285 297 294 265
205 216 203 235 229 231 227 229 237 243 238 241 247 257 263 271 276 280 277 267 262 264 257 257 254 258 251 247 240 239 227 244 249 253 251 257 257 261 267 274 282 284 269
217 200 197 193 194 207 215 229 233 237 236 243 249 254 258 264 271 274 274 266 262 255 247 248 250 247 248 245 243 241 237 252 255 254 253 256 256 262 264 270 278 276 277
237 214 217 209 202 201 223 238 247 243 242 245 247 246 250 252 255 261 266 263 258 255 240 241 247 250 252 239 237 238 242 246 252 256 256 261 263 264 262 258 265 269 271
253 237 228 216 213 219 231 238 244 247 248 248 253 258 258 255 256 259 259 255 252 254 239 234 239 245 249 230 236 242 250 255 258 262 271 266 265 252 261 252 250 258 254
253 246 240 240 243 241 229 229 245 247 255 253 255 262 266 265 254 255 257 249 250 251 241 238 239 235 242 238 241 244 251 255 257 266 264 265 249 263 263 257 257 254 247
256 247 239 232 234 239 243 241 235 251 256 259 263 266 260 258 251 248 252 252 251 247 234 234 232 237 240 239 241 248 250 254 259 264 254 253 257 262 259 260 251 241 234
252 251 229 219 221 231 244 244 243 252 254 254 255 249 246 245 249 253 253 249 249 244 231 231 231 234 239 234 240 239 237 234 238 250 246 252 262 268 269 245 237 236 230
245 227 220 225 232 240 246 249 250 255 257 254 250 248 239 238 244 249 251 248 249 230 232 232 232 234 239 237 240 229 238 233 253 257 252 252 263 277 264 245 229 232 226
243 229 225 225 227 236 245 255 261 262 262 260 255 242 231 234 239 243 246 249 236 214 226 228 229 237 243 237 230 235 235 239 254 252 252 257 273 283 253 247 234 226 222
246 237 236 241 246 250 255 257 259 261 251 248 241 232 226 230 233 237 239 226 208 219 218 233 228 243 227 222 228 229 231 235 242 243 251 272 274 272 244 242 231 238 230